STARLINK-1444

decayed
NORAD ID: 45661 Int'l Des: 2020-035 Owner: SPXS Country: US Constellation: starlink
LEOCIRCULAR
Gruppe

Über STARLINK-1444

Beschreibung wird geladen...

Höhenverlauf

Altitude vs Time

uPlot chart will show altitude changes over time

Zweizeiliger Elementsatz

1 45661U 20035E 25109.11601714 .12634174 12369-4 70862-3 0 9999
2 45661 53.0279 344.5949 0010154 257.2635 241.7570 16.41588247270785
Epoch: 19. Apr. 2025 • Age: 3608 hours

Aktueller Status

Position data unavailable
Startdatum 4. Juni 2020
Alter 5.2 years
Verglühungsdatum 19. Apr. 2025
Typ internet

Technische Details

Klassifizierung Payload
Masse 260.00 kg
Trockenmasse 248.00 kg
Gesamtmasse 260.00 kg
Länge 0.20 m
Durchmesser 2.80 m
Spannweite 9.00 m
Form Box + pan
Hersteller SPXS
Bus-Typ Starlink
Phasenstatus Unknown Transfer Status
Besitzer/Staat SPXS/US

Große Konstellationen

Loading constellations...